[[{"header":{"parameterUnit":"m.s-1","parameterCategory":1,"la1":30.2991,"la2":30.254,"lo1":-89.0895,"lo2":-89.0444,"dy":0.0017,"dx":0.0017,"nx":28,"ny":28,"refTime":"2024-10-03T03:00:00:Z","depth":0,"parameterNumber":2,"parameterNumberName":"U-component_of_WINDS"},"data":[0,0,0,0,0,0,0,0,0,0,0,0,0,0,0,0,0,0,0,0,0,0,0,0,0,0,0,0,0,0,0,0,0,0,0,0,0,0,0,0,0,0,0,0,0,0,0,0,0,0,0,0,0,0,0,0,0,0,-2.5007,-2.5008,0,-2.5096,-2.5097,-2.5098,-2.5025,-2.5022,-2.5019,-2.5016,-2.5112,-2.5117,-2.5122,0,0,0,0,0,0,0,0,0,0,0,0,0,-2.4782,-2.4787,-2.5007,-2.5008,-2.5009,-2.5095,-2.5097,-2.5098,-2.5026,-2.5022,-2.5018,-2.5015,-2.511,-2.5116,-2.5123,0,0,0,0,0,0,0,0,0,0,0,0,0,-2.4876,-2.4788,-2.5007,-2.4984,-2.4982,-2.5095,-2.5097,-2.5098,-2.5027,-2.5022,-2.5017,-2.5013,-2.5108,-2.5116,-2.5124,-2.5266,0,0,-2.5148,-2.5152,0,0,0,0,0,0,0,0,-2.4871,-2.4885,-2.4986,-2.4985,-2.4984,-2.5045,-2.5052,-2.5155,-2.5028,-2.501,-2.5016,-2.5011,-2.5093,-2.5102,-2.5129,-2.527,-2.5274,-2.5149,-2.5154,-2.5158,-2.516,0,0,0,0,0,0,0,-2.4865,-2.4881,-2.5042,-2.4988,-2.4987,-2.4971,-2.4979,-2.5071,-2.5077,-2.5011,-2.5006,-2.5017,-2.5092,-2.5122,-2.5131,-2.5276,-2.5149,-2.5156,-2.5161,-2.5164,-2.5541,-2.5546,0,0,0,0,0,0,-2.486,-2.4876,-2.5039,-2.5045,-2.4915,-2.4979,-2.4988,-2.503,-2.5075,-2.5078,-2.5021,-2.5014,-2.511,-2.5122,-2.5134,-2.5306,-2.5158,-2.5165,-2.517,-2.5536,-2.5542,-2.5548,0,0,0,0,0,0,-2.4855,-2.4875,-2.5036,-2.4959,-2.4978,-2.4987,-2.5035,-2.5034,-2.5063,-2.5083,-2.5084,-2.505,-2.5107,-2.5123,-2.5234,-2.5308,-2.5169,-2.5176,-2.553,-2.5538,-2.5545,-2.5649,0,0,0,0,0,0,-2.4849,-2.4874,-2.4926,-2.4961,-2.4983,-2.5133,-2.504,-2.5039,-2.5077,-2.5068,-2.511,-2.5113,-2.5105,-2.5222,-2.5242,-2.5317,-2.5182,-2.5524,-2.5534,-2.5543,-2.5639,-2.566,-2.5677,0,0,0,0,0,-2.4841,-2.4952,-2.4929,-2.4949,-2.5048,-2.5137,-2.515,-2.5137,-2.5083,-2.5138,-2.515,-2.5111,-2.5296,-2.5234,-2.5256,-2.5334,-2.5519,-2.5531,-2.5542,-2.5631,-2.5656,-2.5677,0,0,0,0,0,0,-2.4928,-2.4956,-2.4931,-2.5056,-2.5095,-2.5125,-2.5192,-2.5163,-2.5218,-2.5208,-2.5191,-2.5201,-2.5319,-2.5337,-2.5267,-2.5476,-2.5399,-2.5416,-2.546,-2.5483,-2.5502,-2.5496,-2.5189,0,0,0,0,0,-2.4961,-2.5029,-2.5051,-2.516,-2.518,-2.5183,-2.5221,-2.5208,-2.5248,-2.5264,-2.5285,-2.5327,-2.5394,-2.5439,-2.5503,-2.5641,-2.5651,-2.5706,-2.5725,-2.574,-2.5755,-2.5834,-2.5859,-2.5586,-2.5586,-2.5586,0,0,-2.5031,-2.5055,-2.51,-2.5178,-2.5206,-2.528,-2.5197,-2.5278,-2.5333,-2.5277,-2.5384,-2.5401,-2.5446,-2.5573,-2.5629,-2.5592,-2.5833,-2.5755,-2.5767,-2.5774,-2.5848,-2.5874,-2.5897,-2.5594,-2.5593,-2.5591,0,0,-2.5197,-2.5221,-2.5315,-2.5346,-2.5389,-2.539,-2.5413,-2.5448,-2.5457,-2.5564,-2.5524,-2.559,-2.5706,-2.5741,-2.5774,-2.5956,-2.5924,-2.5977,-2.6076,-2.6153,-2.6174,-2.6193,-2.6261,-2.6286,-2.5992,-2.5992,-2.5992,0,-2.528,-2.5387,-2.5368,-2.5452,-2.5489,-2.5441,-2.5538,-2.5568,-2.5631,-2.5659,-2.5615,-2.5762,-2.5789,-2.5924,-2.5969,-2.5996,-2.6024,-2.5973,-2.6172,-2.6191,-2.6209,-2.6274,-2.6299,-2.5998,-2.5998,-2.5997,-2.5996,0,-2.5488,-2.5563,-2.5634,-2.5695,-2.574,-2.583,-2.5828,-2.5876,-2.5859,-2.5866,-2.5977,-2.6008,-2.6078,-2.6108,-2.6092,-2.6243,-2.6219,-2.6174,-2.6097,-2.6242,-2.6302,-2.6327,-2.6008,-2.6005,-2.6003,-2.6002,0,0,-2.5711,-2.5761,-2.5788,-2.5816,-2.5862,-2.5921,-2.601,-2.6077,-2.612,-2.6165,-2.6242,-2.6342,-2.6302,-2.634,-2.6328,-2.6394,-2.654,-2.6342,-2.6343,-2.638,-2.6712,-2.6747,-2.6776,-2.6518,-2.6523,-2.6526,-2.6709,0,-2.5881,-2.6035,-2.6022,-2.6169,-2.624,-2.6195,-2.6274,-2.6311,-2.6321,-2.6384,-2.6395,-2.6468,-2.6407,-2.643,-2.6494,-2.6509,-2.6607,-2.6495,-2.6593,-2.6596,-2.6585,-2.6807,-2.6844,-2.7015,-2.6732,-2.6736,-2.6739,0,-2.61,-2.6153,-2.6307,-2.6343,-2.6373,-2.6443,-2.6505,-2.6565,-2.6608,-2.661,-2.6654,-2.6631,-2.6724,-2.6644,-2.6774,-2.6698,-2.6737,-2.6751,-2.6757,-2.6768,-2.6678,-2.6827,-2.7068,-2.7095,-2.6776,-2.6773,-2.677,0,-2.6252,-2.6361,-2.6467,-2.6493,-2.6537,-2.6588,-2.661,-2.6648,-2.669,-2.6745,-2.6773,-2.6838,-2.6875,-2.6927,-2.6924,-2.6865,-2.7057,-2.6976,-2.7065,-2.7065,-2.7109,-2.7107,-2.7364,-2.713,-2.7129,-2.7129,-2.7128,0,-2.6445,-2.6541,-2.6536,-2.6602,-2.671,-2.6695,-2.6803,-2.6819,-2.6854,-2.6924,-2.6889,-2.6957,-2.6947,-2.7016,-2.7014,-2.7124,-2.714,-2.7147,-2.7146,-2.7151,-2.7151,-2.7178,-2.7168,-2.7136,-2.7134,-2.7133,-2.7132,0,-2.6633,-2.6633,-2.6747,-2.678,-2.679,-2.6869,-2.6898,-2.6962,-2.6969,-2.7059,-2.7079,-2.709,-2.7169,-2.717,-2.7261,-2.726,-2.7395,-2.7379,-2.7381,-2.7379,-2.7469,-2.7461,-2.7754,-2.7793,-2.7532,-2.7534,-2.7536,0,-2.6757,-2.683,-2.6871,-2.6915,-2.694,-2.7011,-2.7054,-2.7042,-2.7089,-2.7145,-2.7203,-2.7278,-2.7338,-2.7467,-2.7485,-2.7554,-2.7542,-2.764,-2.7552,-2.7557,-2.7547,-2.7544,-2.7553,-2.7658,-2.7661,-2.7663,-2.7665,0,-2.6979,-2.6976,-2.7038,-2.7101,-2.7153,-2.7203,-2.7249,-2.7287,-2.7281,-2.7336,-2.7416,-2.7462,-2.7555,-2.7631,-2.7699,-2.7724,-2.7696,-2.7692,-2.7717,-2.7725,-2.7724,-2.7729,-2.743,-2.7686,-2.7684,-2.7682,-2.7681,-2.768,-2.7141,-2.7205,-2.7244,-2.7316,-2.7349,-2.7393,-2.7456,-2.747,-2.7536,-2.7609,-2.7599,-2.7689,-2.7733,-2.7821,-2.7851,-2.7923,-2.789,-2.7925,-2.7935,-2.7944,-2.7956,-2.771,-2.7935,-2.7935,-2.7934,-2.7934,-2.7933,0,-2.7363,-2.7387,-2.7452,-2.7517,-2.7575,-2.754,-2.759,-2.7641,-2.772,-2.7762,-2.7822,-2.7915,-2.799,-2.8014,-2.8087,-2.814,-2.8129,-2.816,-2.8157,-2.8164,-2.798,-2.7952,-2.8168,-2.8168,-2.8168,-2.8168,-2.8168,-2.8168,-2.7486,-2.7594,-2.7596,-2.7721,-2.7744,-2.783,-2.7862,-2.7904,-2.7938,-2.8044,-2.8105,-2.8119,-2.8156,-2.8231,-2.83,-2.8305,-2.8335,-2.8372,-2.8373,-2.82,-2.8177,-2.8154,-2.8129,-2.8378,-2.8378,-2.8552,-2.8553,-2.8554]},{"header":{"parameterUnit":"m.s-1","parameterCategory":1,"la1":30.2991,"la2":30.254,"lo1":-89.0895,"lo2":-89.0444,"dy":0.0017,"dx":0.0017,"nx":28,"ny":28,"refTime":"2024-10-03T03:00:00:Z","depth":0,"parameterNumber":3,"parameterNumberName":"V-component_of_WINDS"},"data":[0,0,0,0,0,0,0,0,0,0,0,0,0,0,0,0,0,0,0,0,0,0,0,0,0,0,0,0,0,0,0,0,0,0,0,0,0,0,0,0,0,0,0,0,0,0,0,0,0,0,0,0,0,0,0,0,0,0,-1.3568,-1.3569,0,-1.3698,-1.37,-1.3701,-1.376,-1.376,-1.3759,-1.3759,-1.3894,-1.3898,-1.3902,0,0,0,0,0,0,0,0,0,0,0,0,0,-1.3373,-1.3376,-1.3568,-1.3569,-1.3571,-1.3698,-1.37,-1.3701,-1.376,-1.376,-1.3759,-1.3759,-1.3893,-1.3898,-1.3902,0,0,0,0,0,0,0,0,0,0,0,0,0,-1.3476,-1.3377,-1.3567,-1.3615,-1.3621,-1.3697,-1.37,-1.3702,-1.376,-1.376,-1.3759,-1.3759,-1.3892,-1.3897,-1.3903,-1.3942,0,0,-1.392,-1.3922,0,0,0,0,0,0,0,0,-1.347,-1.3483,-1.3607,-1.3612,-1.3619,-1.3712,-1.3681,-1.3782,-1.376,-1.3707,-1.3759,-1.3759,-1.3834,-1.3844,-1.3869,-1.3948,-1.3954,-1.392,-1.3924,-1.3926,-1.3928,0,0,0,0,0,0,0,-1.3463,-1.3478,-1.3619,-1.3608,-1.3616,-1.3631,-1.3646,-1.37,-1.377,-1.3712,-1.3716,-1.3731,-1.3837,-1.3864,-1.3873,-1.3956,-1.392,-1.3925,-1.3929,-1.3931,-1.4077,-1.4077,0,0,0,0,0,0,-1.3447,-1.3471,-1.3615,-1.3623,-1.3542,-1.3635,-1.3651,-1.3683,-1.377,-1.3783,-1.3731,-1.3733,-1.3854,-1.3866,-1.3878,-1.3932,-1.3926,-1.3931,-1.3935,-1.4076,-1.4077,-1.4077,0,0,0,0,0,0,-1.3443,-1.346,-1.361,-1.3549,-1.3569,-1.3639,-1.3673,-1.3685,-1.3712,-1.3784,-1.3797,-1.3745,-1.3855,-1.387,-1.3926,-1.3937,-1.3934,-1.3939,-1.4075,-1.4076,-1.4077,-1.4038,0,0,0,0,0,0,-1.3437,-1.3458,-1.3472,-1.3548,-1.3572,-1.3655,-1.3674,-1.3688,-1.3721,-1.3725,-1.3801,-1.3813,-1.3856,-1.3917,-1.3932,-1.3945,-1.3943,-1.4075,-1.4076,-1.4077,-1.4039,-1.4037,-1.4036,0,0,0,0,0,-1.343,-1.3456,-1.3473,-1.349,-1.3592,-1.3655,-1.3669,-1.3716,-1.3722,-1.3738,-1.3785,-1.3811,-1.3933,-1.3923,-1.3939,-1.3954,-1.4074,-1.4075,-1.4077,-1.4039,-1.4037,-1.4036,0,0,0,0,0,0,-1.3379,-1.3467,-1.3486,-1.3538,-1.3589,-1.3665,-1.3687,-1.3713,-1.3764,-1.3766,-1.3823,-1.384,-1.3891,-1.3928,-1.3915,-1.3998,-1.4006,-1.4011,-1.3972,-1.3971,-1.397,-1.3961,-1.3948,0,0,0,0,0,-1.3374,-1.3417,-1.3492,-1.353,-1.3555,-1.3616,-1.3645,-1.3678,-1.3733,-1.3755,-1.3806,-1.386,-1.3911,-1.3943,-1.3993,-1.4044,-1.4063,-1.4063,-1.4061,-1.406,-1.4064,-1.4096,-1.4097,-1.4081,-1.4081,-1.4081,0,0,-1.3364,-1.3417,-1.3441,-1.3521,-1.3565,-1.361,-1.3634,-1.368,-1.3714,-1.3763,-1.3819,-1.3858,-1.3922,-1.3976,-1.4002,-1.4008,-1.4072,-1.4062,-1.406,-1.4064,-1.4097,-1.4099,-1.41,-1.4082,-1.4082,-1.4081,0,0,-1.3369,-1.3412,-1.345,-1.3493,-1.3558,-1.3599,-1.3608,-1.3681,-1.371,-1.3767,-1.3805,-1.3847,-1.3932,-1.3977,-1.4011,-1.4034,-1.4061,-1.4049,-1.4043,-1.4074,-1.4075,-1.4077,-1.4087,-1.409,-1.4052,-1.4052,-1.4052,0,-1.3348,-1.3416,-1.3466,-1.3511,-1.3546,-1.3592,-1.3631,-1.3671,-1.3749,-1.3773,-1.3779,-1.3889,-1.3935,-1.4001,-1.4007,-1.4032,-1.4046,-1.4041,-1.4071,-1.4073,-1.4075,-1.4086,-1.4089,-1.4051,-1.4051,-1.4051,-1.4051,0,-1.3389,-1.3436,-1.3459,-1.3534,-1.3571,-1.3613,-1.3671,-1.3703,-1.3733,-1.3773,-1.3833,-1.3889,-1.3953,-1.3971,-1.4,-1.4043,-1.4045,-1.406,-1.4069,-1.4074,-1.4085,-1.409,-1.4048,-1.4049,-1.4049,-1.405,0,0,-1.3365,-1.3468,-1.3475,-1.3511,-1.3587,-1.3625,-1.367,-1.3733,-1.376,-1.3813,-1.3854,-1.3926,-1.3941,-1.398,-1.4014,-1.4041,-1.4059,-1.4053,-1.4056,-1.4054,-1.4112,-1.4101,-1.4105,-1.4077,-1.4078,-1.4078,-1.4107,0,-1.3381,-1.3463,-1.351,-1.3573,-1.3618,-1.3663,-1.3703,-1.3754,-1.3794,-1.384,-1.3884,-1.3935,-1.395,-1.3974,-1.4002,-1.405,-1.4071,-1.4049,-1.4117,-1.4118,-1.4101,-1.411,-1.4099,-1.4123,-1.4111,-1.4112,-1.4113,0,-1.3411,-1.3463,-1.3531,-1.3604,-1.3625,-1.3659,-1.3722,-1.3764,-1.3825,-1.3852,-1.3895,-1.3931,-1.3982,-1.3986,-1.4059,-1.4042,-1.4073,-1.4101,-1.4103,-1.4113,-1.4117,-1.4121,-1.4131,-1.4135,-1.412,-1.4119,-1.4119,0,-1.3389,-1.3476,-1.3529,-1.3558,-1.3644,-1.3668,-1.3705,-1.3765,-1.38,-1.3855,-1.3879,-1.3939,-1.3972,-1.4018,-1.4069,-1.4068,-1.4137,-1.4146,-1.4163,-1.4162,-1.4177,-1.4175,-1.4193,-1.4193,-1.4193,-1.4193,-1.4193,0,-1.3403,-1.3443,-1.3521,-1.3553,-1.36,-1.3654,-1.3699,-1.374,-1.3794,-1.3836,-1.3878,-1.3917,-1.3982,-1.4029,-1.407,-1.4125,-1.4139,-1.4164,-1.4174,-1.4161,-1.4158,-1.4183,-1.4183,-1.4194,-1.4194,-1.4194,-1.4194,0,-1.3386,-1.344,-1.35,-1.3577,-1.3598,-1.3629,-1.3696,-1.373,-1.3772,-1.3825,-1.3841,-1.3908,-1.3966,-1.4022,-1.4099,-1.4127,-1.4183,-1.4195,-1.4162,-1.4168,-1.4183,-1.4182,-1.4219,-1.4228,-1.422,-1.422,-1.422,0,-1.3392,-1.3425,-1.3505,-1.3537,-1.3573,-1.3623,-1.3659,-1.3715,-1.3751,-1.3824,-1.385,-1.3911,-1.3963,-1.4055,-1.4111,-1.4172,-1.4187,-1.4196,-1.4197,-1.4183,-1.419,-1.4188,-1.4193,-1.4195,-1.4195,-1.4195,-1.4195,0,-1.3398,-1.3424,-1.3474,-1.3535,-1.3577,-1.3628,-1.368,-1.3703,-1.3769,-1.3808,-1.3868,-1.3909,-1.3989,-1.405,-1.4118,-1.4158,-1.4188,-1.4194,-1.4202,-1.4189,-1.4169,-1.4183,-1.4161,-1.4193,-1.4193,-1.4194,-1.4194,-1.4194,-1.3395,-1.3426,-1.3489,-1.3545,-1.359,-1.3638,-1.3674,-1.3721,-1.3772,-1.3842,-1.3872,-1.3933,-1.3996,-1.4089,-1.4129,-1.4179,-1.4186,-1.4196,-1.4199,-1.4201,-1.42,-1.416,-1.4191,-1.4191,-1.4191,-1.4192,-1.4192,0,-1.3404,-1.3447,-1.3498,-1.357,-1.3614,-1.3638,-1.3698,-1.3734,-1.3787,-1.3842,-1.3893,-1.3964,-1.4024,-1.4086,-1.415,-1.4178,-1.4194,-1.4193,-1.4193,-1.4202,-1.4189,-1.4177,-1.418,-1.418,-1.418,-1.418,-1.418,-1.418,-1.3415,-1.347,-1.3503,-1.3582,-1.3625,-1.3685,-1.3717,-1.3763,-1.3807,-1.3884,-1.3934,-1.3974,-1.4033,-1.4102,-1.4159,-1.4176,-1.4198,-1.4194,-1.4215,-1.4202,-1.4202,-1.4203,-1.4192,-1.4198,-1.4198,-1.4225,-1.4225,-1.4225]}]]